Powrót do katalogu

STARLINK-34004

AktywnyŁącznośćVLEO
NORAD 63941·PAYLOAD·🇺🇸 United States

Wystrzelony May 13, 2025 z Vandenberg Space Force Base

Loading…

Następne Przeloty (najbliższe 24 godziny)

TLE

ŚwieżeSource: CelesTrak SupGP

Epoka: Sep 14, 2026, 21:39 UTC

1 63941C 25098R   26257.90256944 -.00039528  00000+0 -13747-2 0  2577
2 63941  70.0001 155.7356 0003205 268.3578 173.7791 15.29607273    12

Śledź STARLINK-34004 w czasie rzeczywistym z AllMySat

Download on the App Store